Station History

Weather Underground - logo

Station Historical Data
Daily Summary for August 1, 2017 Units:  English    Metric   Both
« Previous Day
Next Day »
Daily Weekly Monthly Yearly Custom
  High: Low: Average:
Temperature: TemperatureF °F 70.5 °F 85.1 °F
Dew Point: DewpointF °F 57.3 °F 63.3 °F
Humidity: Humidity % 25 % 51 %
Wind Speed: WindSpeedMPH mph 0.0 mph 1.1 mph
Wind Gust: WindSpeedGustMPH mph - -
Wind:- - SSE
Pressure: PressureIn in 29.73 in -
Precipitation: 0.00 in    
Historical Graphs
 
 
Tabular Data for August 1, 2017
Time Temperature Dew Point Pressure Wind Wind Speed Wind Gust Humidity Rainfall Rate (Hourly)
TemperatureF °F DewpointF °F PressureIn in Calm     Humidity % HourlyPrecipIn in
00:01 78.8 °F 64.7 °F 29.83 in Calm     62 % 0.00 in
00:06 78.4 °F 64.3 °F 29.83 in SE 1.2 mph   62 % 0.00 in
00:11 78.3 °F 64.2 °F 29.83 in Calm     62 % 0.00 in
00:16 78.2 °F 64.6 °F 29.83 in SE 1.2 mph   63 % 0.00 in
00:21 77.9 °F 64.7 °F 29.83 in Calm     64 % 0.00 in
00:26 77.8 °F 64.6 °F 29.83 in Calm     64 % 0.00 in
00:31 77.6 °F 64.9 °F 29.83 in Calm     65 % 0.00 in
00:36 77.3 °F 65.1 °F 29.83 in Calm     66 % 0.00 in
00:41 76.9 °F 65.1 °F 29.83 in Calm     67 % 0.00 in
00:46 76.7 °F 65.8 °F 29.82 in Calm     69 % 0.00 in
00:51 76.4 °F 65.5 °F 29.82 in Calm     69 % 0.00 in
00:56 76.5 °F 65.1 °F 29.82 in Calm     68 % 0.00 in
01:01 76.8 °F 65.0 °F 29.83 in East 1.2 mph 1.2 mph 67 % 0.00 in
01:06 77.0 °F 65.2 °F 29.82 in East 1.2 mph   67 % 0.00 in
01:11 77.0 °F 65.2 °F 29.82 in Calm     67 % 0.00 in
01:16 76.8 °F 64.6 °F 29.82 in Calm     66 % 0.00 in
01:21 76.7 °F 64.9 °F 29.82 in Calm     67 % 0.00 in
01:26 76.5 °F 64.7 °F 29.83 in Calm     67 % 0.00 in
01:31 76.4 °F 65.1 °F 29.82 in Calm     68 % 0.00 in
01:36 76.1 °F 64.8 °F 29.83 in Calm     68 % 0.00 in
01:37 75.9 °F 64.6 °F 29.82 in Calm     68 % 0.00 in
01:42 75.8 °F 64.9 °F 29.82 in Calm     69 % 0.00 in
01:47 75.6 °F 65.5 °F 29.82 in Calm     71 % 0.00 in
01:52 75.3 °F 65.2 °F 29.82 in Calm     71 % 0.00 in
01:57 75.1 °F 64.6 °F 29.82 in Calm     70 % 0.00 in
02:02 75.0 °F 64.5 °F 29.82 in Calm     70 % 0.00 in
02:07 75.0 °F 65.0 °F 29.82 in Calm     71 % 0.00 in
02:12 74.8 °F 64.8 °F 29.82 in Calm     71 % 0.00 in
02:17 74.7 °F 64.3 °F 29.81 in Calm     70 % 0.00 in
02:22 74.7 °F 64.3 °F 29.81 in Calm     70 % 0.00 in
02:27 74.7 °F 64.3 °F 29.81 in Calm     70 % 0.00 in
02:32 74.6 °F 64.6 °F 29.82 in Calm     71 % 0.00 in
02:38 74.3 °F 64.7 °F 29.81 in Calm     72 % 0.00 in
02:43 74.1 °F 64.5 °F 29.82 in Calm     72 % 0.00 in
02:48 74.0 °F 64.4 °F 29.82 in Calm     72 % 0.00 in
02:53 74.0 °F 64.0 °F 29.81 in Calm     71 % 0.00 in
02:58 74.0 °F 64.0 °F 29.82 in Calm     71 % 0.00 in
03:03 74.0 °F 63.6 °F 29.82 in Calm     70 % 0.00 in
03:08 74.0 °F 64.0 °F 29.81 in Calm     71 % 0.00 in
03:13 73.8 °F 63.8 °F 29.81 in Calm     71 % 0.00 in
03:18 73.7 °F 64.1 °F 29.82 in Calm     72 % 0.00 in
03:23 73.7 °F 63.7 °F 29.82 in Calm     71 % 0.00 in
03:28 73.6 °F 63.6 °F 29.82 in Calm     71 % 0.00 in
03:33 73.5 °F 63.5 °F 29.81 in Calm     71 % 0.00 in
03:38 73.5 °F 63.5 °F 29.81 in Calm     71 % 0.00 in
03:43 73.3 °F 63.3 °F 29.82 in Calm     71 % 0.00 in
03:48 73.2 °F 63.2 °F 29.82 in Calm     71 % 0.00 in
03:54 73.1 °F 63.5 °F 29.81 in Calm     72 % 0.00 in
03:59 73.0 °F 63.8 °F 29.82 in Calm     73 % 0.00 in
04:04 72.8 °F 63.6 °F 29.81 in Calm     73 % 0.00 in
04:09 72.6 °F 63.4 °F 29.81 in Calm     73 % 0.00 in
04:14 72.3 °F 63.9 °F 29.82 in Calm     75 % 0.00 in
04:19 72.2 °F 63.4 °F 29.81 in Calm     74 % 0.00 in
04:24 72.1 °F 64.1 °F 29.82 in Calm     76 % 0.00 in
04:29 72.0 °F 64.0 °F 29.82 in Calm     76 % 0.00 in
04:34 71.8 °F 63.8 °F 29.82 in Calm     76 % 0.00 in
04:35 71.8 °F 63.8 °F 29.82 in Calm     76 % 0.00 in
04:40 71.6 °F 63.6 °F 29.82 in Calm     76 % 0.00 in
04:45 71.5 °F 63.5 °F 29.82 in Calm     76 % 0.00 in
04:50 71.3 °F 63.3 °F 29.82 in Calm     76 % 0.00 in
04:55 71.2 °F 63.2 °F 29.82 in Calm     76 % 0.00 in
05:00 71.2 °F 63.2 °F 29.82 in Calm     76 % 0.00 in
05:05 71.1 °F 63.1 °F 29.82 in Calm     76 % 0.00 in
05:10 71.1 °F 62.8 °F 29.82 in Calm     75 % 0.00 in
05:15 71.1 °F 63.1 °F 29.82 in Calm     76 % 0.00 in
05:20 71.0 °F 62.7 °F 29.82 in Calm     75 % 0.00 in
05:25 71.0 °F 62.7 °F 29.82 in Calm     75 % 0.00 in
05:30 71.0 °F 62.7 °F 29.82 in ESE 1.2 mph   75 % 0.00 in
05:35 71.0 °F 62.7 °F 29.82 in SE 1.2 mph 1.2 mph 75 % 0.00 in
05:40 70.9 °F 62.6 °F 29.82 in Calm     75 % 0.00 in
05:45 70.7 °F 62.4 °F 29.83 in SE 1.2 mph   75 % 0.00 in
05:50 70.6 °F 62.3 °F 29.83 in SE 1.2 mph 1.2 mph 75 % 0.00 in
05:55 70.5 °F 62.2 °F 29.83 in Calm     75 % 0.00 in
06:00 70.5 °F 62.2 °F 29.83 in SE 1.2 mph 1.2 mph 75 % 0.00 in
06:05 70.5 °F 62.2 °F 29.83 in ESE 2.3 mph 2.3 mph 75 % 0.00 in
06:10 70.5 °F 62.2 °F 29.83 in ESE 1.2 mph 1.2 mph 75 % 0.00 in
06:15 70.5 °F 61.8 °F 29.83 in Calm     74 % 0.00 in
06:20 70.6 °F 61.9 °F 29.83 in ESE 1.2 mph   74 % 0.00 in
06:23 70.6 °F 61.9 °F 29.83 in ESE 1.2 mph 1.2 mph 74 % 0.00 in
06:28 70.5 °F 61.8 °F 29.83 in ESE 1.2 mph 1.2 mph 74 % 0.00 in
06:33 70.5 °F 61.8 °F 29.83 in ESE 1.2 mph 1.2 mph 74 % 0.00 in
06:38 70.5 °F 61.8 °F 29.83 in Calm     74 % 0.00 in
06:43 70.7 °F 62.0 °F 29.83 in ESE 1.2 mph   74 % 0.00 in
06:48 71.0 °F 61.9 °F 29.83 in ESE 1.2 mph   73 % 0.00 in
06:53 71.2 °F 62.1 °F 29.84 in Calm     73 % 0.00 in
06:58 71.5 °F 62.0 °F 29.84 in Calm     72 % 0.00 in
07:03 71.9 °F 62.0 °F 29.84 in Calm     71 % 0.00 in
07:08 72.2 °F 62.3 °F 29.84 in SE 1.2 mph   71 % 0.00 in
07:13 72.8 °F 62.8 °F 29.84 in East 1.2 mph 1.2 mph 71 % 0.00 in
07:18 74.0 °F 63.2 °F 29.84 in SSE 2.3 mph   69 % 0.00 in
07:23 75.1 °F 63.4 °F 29.84 in SE 1.2 mph   67 % 0.00 in
07:28 76.0 °F 63.4 °F 29.85 in SSE 1.2 mph   65 % 0.00 in
07:33 76.6 °F 63.1 °F 29.85 in Calm     63 % 0.00 in
07:38 77.3 °F 62.3 °F 29.85 in ESE 1.0 mph 1.0 mph 60 % 0.00 in
07:43 78.0 °F 63.0 °F 29.85 in SSE 2.0 mph 2.0 mph 60 % 0.00 in
07:48 78.5 °F 63.0 °F 29.85 in SE 2.0 mph 2.0 mph 59 % 0.00 in
07:53 78.7 °F 62.7 °F 29.85 in ESE 3.5 mph 3.5 mph 58 % 0.00 in
07:58 79.1 °F 63.1 °F 29.85 in East 2.3 mph 2.3 mph 58 % 0.00 in
08:03 79.7 °F 63.1 °F 29.85 in ESE 3.5 mph 3.5 mph 57 % 0.00 in
08:08 80.1 °F 63.0 °F 29.85 in ESE 3.5 mph 3.5 mph 56 % 0.00 in
08:13 80.3 °F 63.2 °F 29.85 in SE 2.3 mph 2.3 mph 56 % 0.00 in
08:18 81.0 °F 63.3 °F 29.85 in ESE 3.5 mph 3.5 mph 55 % 0.00 in
08:24 81.4 °F 62.6 °F 29.85 in SE 3.5 mph 3.5 mph 53 % 0.00 in
08:29 81.6 °F 62.8 °F 29.85 in SE 2.0 mph 2.0 mph 53 % 0.00 in
08:34 82.5 °F 64.2 °F 29.84 in East 1.2 mph 1.2 mph 54 % 0.00 in
08:39 83.2 °F 63.2 °F 29.84 in South 2.0 mph 2.0 mph 51 % 0.00 in
08:44 83.7 °F 63.1 °F 29.84 in SSE 2.3 mph 2.3 mph 50 % 0.00 in
08:49 84.6 °F 62.7 °F 29.84 in ESE 2.3 mph 2.3 mph 48 % 0.00 in
08:54 85.1 °F 63.2 °F 29.84 in South 2.3 mph 2.3 mph 48 % 0.00 in
08:59 85.3 °F 61.6 °F 29.84 in SE 2.3 mph 2.3 mph 45 % 0.00 in
09:04 85.5 °F 61.7 °F 29.84 in SE 2.3 mph 2.3 mph 45 % 0.00 in
09:09 86.0 °F 62.2 °F 29.84 in SSE 3.5 mph 3.5 mph 45 % 0.00 in
09:14 86.7 °F 61.5 °F 29.83 in SSE 3.5 mph 3.5 mph 43 % 0.00 in
09:19 86.9 °F 61.7 °F 29.84 in Calm     43 % 0.00 in
09:24 87.4 °F 60.8 °F 29.83 in SSE 1.2 mph 1.2 mph 41 % 0.00 in
09:29 87.9 °F 60.6 °F 29.83 in SE 1.2 mph 1.2 mph 40 % 0.00 in
09:34 87.9 °F 57.6 °F 29.83 in South 3.5 mph 3.5 mph 36 % 0.00 in
09:39 88.3 °F 58.0 °F 29.83 in South 3.5 mph 3.5 mph 36 % 0.00 in
09:44 88.6 °F 58.2 °F 29.83 in SSE 2.3 mph 2.3 mph 36 % 0.00 in
09:49 88.9 °F 60.7 °F 29.83 in ESE 2.0 mph 2.0 mph 39 % 0.00 in
09:54 89.6 °F 59.1 °F 29.83 in SE 3.5 mph 3.5 mph 36 % 0.00 in
09:59 90.0 °F 59.5 °F 29.83 in SE 1.2 mph   36 % 0.00 in
10:04 90.7 °F 59.3 °F 29.83 in SE 3.5 mph 3.5 mph 35 % 0.00 in
10:09 90.9 °F 57.8 °F 29.83 in South 2.3 mph 2.3 mph 33 % 0.00 in
10:14 91.2 °F 59.7 °F 29.83 in SSE 3.5 mph   35 % 0.00 in
10:19 91.4 °F 59.1 °F 29.83 in ESE 5.8 mph 5.8 mph 34 % 0.00 in
10:24 91.3 °F 59.0 °F 29.83 in South 3.5 mph 3.5 mph 34 % 0.00 in
10:29 91.6 °F 58.4 °F 29.83 in SSE 5.0 mph 5.0 mph 33 % 0.00 in
10:34 91.7 °F 57.7 °F 29.83 in SSE 3.5 mph 3.5 mph 32 % 0.00 in
10:39 91.7 °F 58.5 °F 29.83 in South 5.8 mph 5.8 mph 33 % 0.00 in
10:44 91.8 °F 61.0 °F 29.83 in SE 2.3 mph 2.3 mph 36 % 0.00 in
10:49 92.0 °F 60.4 °F 29.83 in SE 3.5 mph 3.5 mph 35 % 0.00 in
10:54 92.1 °F 61.3 °F 29.83 in NNE 3.5 mph 3.5 mph 36 % 0.00 in
10:59 92.4 °F 63.1 °F 29.83 in NNE 3.5 mph 3.5 mph 38 % 0.00 in
11:05 92.6 °F 62.5 °F 29.83 in SW 2.3 mph 2.3 mph 37 % 0.00 in
11:10 92.7 °F 61.8 °F 29.83 in South 4.6 mph 4.6 mph 36 % 0.00 in
11:15 92.8 °F 61.9 °F 29.82 in SE 3.5 mph 3.5 mph 36 % 0.00 in
11:20 92.8 °F 63.5 °F 29.83 in SE 3.5 mph 3.5 mph 38 % 0.00 in
11:25 92.8 °F 62.7 °F 29.83 in SSE 3.5 mph 3.5 mph 37 % 0.00 in
11:30 92.9 °F 62.8 °F 29.83 in South 8.1 mph 8.1 mph 37 % 0.00 in
11:35 93.0 °F 62.1 °F 29.83 in South 3.5 mph 3.5 mph 36 % 0.00 in
11:40 93.1 °F 63.0 °F 29.83 in SSE 3.5 mph 3.5 mph 37 % 0.00 in
11:45 93.2 °F 63.8 °F 29.83 in ENE 3.5 mph 3.5 mph 38 % 0.00 in
11:50 93.6 °F 62.6 °F 29.83 in NE 2.3 mph 2.3 mph 36 % 0.00 in
11:55 93.6 °F 63.4 °F 29.82 in East 3.5 mph 3.5 mph 37 % 0.00 in
12:00 93.7 °F 61.9 °F 29.82 in East 4.0 mph 4.0 mph 35 % 0.00 in
12:05 94.1 °F 63.1 °F 29.82 in SE 2.3 mph 2.3 mph 36 % 0.00 in
12:10 94.2 °F 64.7 °F 29.82 in SSE 4.6 mph 4.6 mph 38 % 0.00 in
12:15 94.1 °F 63.1 °F 29.82 in SSE 4.6 mph 4.6 mph 36 % 0.00 in
12:20 94.3 °F 65.5 °F 29.82 in SE 3.5 mph 3.5 mph 39 % 0.00 in
12:22 94.5 °F 64.2 °F 29.82 in ESE 3.5 mph 3.5 mph 37 % 0.00 in
12:27 94.8 °F 64.5 °F 29.82 in SSE 3.5 mph 3.5 mph 37 % 0.00 in
12:32 95.3 °F 62.5 °F 29.82 in North 3.5 mph 3.5 mph 34 % 0.00 in
12:37 95.6 °F 61.9 °F 29.82 in SSW 3.5 mph 3.5 mph 33 % 0.00 in
12:42 95.5 °F 61.8 °F 29.82 in ESE 3.5 mph 3.5 mph 33 % 0.00 in
12:47 95.5 °F 61.8 °F 29.82 in SSE 3.5 mph 3.5 mph 33 % 0.00 in
12:52 96.0 °F 64.7 °F 29.82 in South 5.0 mph 5.0 mph 36 % 0.00 in
12:57 96.3 °F 61.6 °F 29.81 in West 3.5 mph 3.5 mph 32 % 0.00 in
13:02 95.9 °F 60.4 °F 29.81 in NW 4.6 mph 4.6 mph 31 % 0.00 in
13:07 96.1 °F 58.7 °F 29.81 in WSW 3.5 mph 3.5 mph 29 % 0.00 in
13:11 95.7 °F 59.3 °F 29.81 in WNW 3.5 mph 3.5 mph 30 % 0.00 in
13:12 95.4 °F 60.0 °F 29.81 in North 2.3 mph 2.3 mph 31 % 0.00 in
13:17 95.9 °F 62.2 °F 29.81 in SE 3.5 mph 3.5 mph 33 % 0.00 in
13:21 96.2 °F 62.4 °F 29.81 in SE 2.3 mph 2.3 mph 33 % 0.00 in
13:26 97.0 °F 64.0 °F 29.81 in SE 2.3 mph 2.3 mph 34 % 0.00 in
13:31 97.6 °F 65.3 °F 29.80 in NW 2.3 mph 2.3 mph 35 % 0.00 in
13:36 97.9 °F 63.9 °F 29.80 in West 2.3 mph 2.3 mph 33 % 0.00 in
13:41 97.7 °F 63.7 °F 29.80 in South 2.3 mph 2.3 mph 33 % 0.00 in
13:46 97.0 °F 64.0 °F 29.79 in SE 1.2 mph 1.2 mph 34 % 0.00 in
13:51 96.6 °F 64.5 °F 29.80 in SSE 1.2 mph 1.2 mph 35 % 0.00 in
13:56 95.6 °F 63.6 °F 29.80 in ESE 3.5 mph 3.5 mph 35 % 0.00 in
14:01 95.0 °F 62.2 °F 29.80 in South 1.2 mph   34 % 0.00 in
14:06 95.3 °F 64.9 °F 29.80 in ESE 2.0 mph 2.0 mph 37 % 0.00 in
14:11 95.3 °F 64.1 °F 29.80 in SW 1.2 mph 1.2 mph 36 % 0.00 in
14:16 95.2 °F 63.2 °F 29.79 in South 1.2 mph 1.5 mph 35 % 0.00 in
14:21 95.4 °F 63.4 °F 29.79 in Calm   0.7 mph 35 % 0.00 in
14:26 95.4 °F 63.4 °F 29.78 in SE 2.3 mph 2.3 mph 35 % 0.00 in
14:31 95.6 °F 65.9 °F 29.79 in Calm     38 % 0.00 in
14:36 96.0 °F 62.3 °F 29.79 in SSE 2.3 mph 2.3 mph 33 % 0.00 in
14:41 95.9 °F 63.8 °F 29.79 in SE 3.5 mph   35 % 0.00 in
14:46 95.9 °F 62.2 °F 29.79 in ESE 1.2 mph   33 % 0.00 in
14:51 95.9 °F 63.0 °F 29.78 in SSW 2.3 mph   34 % 0.00 in
14:56 96.1 °F 64.0 °F 29.78 in Calm     35 % 0.00 in
15:01 96.5 °F 63.5 °F 29.77 in WNW 2.3 mph   34 % 0.00 in
15:07 96.5 °F 63.5 °F 29.77 in NW 3.5 mph 3.5 mph 34 % 0.00 in
15:12 96.4 °F 62.6 °F 29.77 in NW 1.2 mph 1.3 mph 33 % 0.00 in
15:17 96.8 °F 64.6 °F 29.77 in Calm     35 % 0.00 in
15:22 97.2 °F 60.6 °F 29.77 in SE 1.2 mph 1.2 mph 30 % 0.00 in
15:27 97.3 °F 62.5 °F 29.77 in SE 1.2 mph   32 % 0.00 in
15:32 97.4 °F 61.7 °F 29.77 in Calm     31 % 0.00 in
15:37 97.8 °F 62.9 °F 29.77 in Calm     32 % 0.00 in
15:42 98.2 °F 61.5 °F 29.76 in Calm     30 % 0.00 in
15:47 98.0 °F 61.3 °F 29.76 in NW 1.2 mph 1.2 mph 30 % 0.00 in
15:52 97.5 °F 64.4 °F 29.76 in Calm     34 % 0.00 in
15:57 97.6 °F 61.9 °F 29.76 in Calm     31 % 0.00 in
16:02 97.1 °F 61.4 °F 29.76 in Calm     31 % 0.00 in
16:07 96.9 °F 63.9 °F 29.76 in Calm     34 % 0.00 in
16:12 96.9 °F 61.3 °F 29.76 in Calm     31 % 0.00 in
16:17 96.9 °F 63.0 °F 29.76 in Calm     33 % 0.00 in
16:22 96.8 °F 62.1 °F 29.76 in Calm     32 % 0.00 in
16:27 96.7 °F 62.0 °F 29.75 in Calm     32 % 0.00 in
16:32 96.5 °F 63.5 °F 29.75 in Calm     34 % 0.00 in
16:37 96.4 °F 62.6 °F 29.75 in Calm     33 % 0.00 in
16:42 96.3 °F 63.4 °F 29.75 in Calm     34 % 0.00 in
16:47 96.2 °F 64.9 °F 29.75 in Calm     36 % 0.00 in
16:52 96.3 °F 66.6 °F 29.74 in SSE 1.2 mph 1.2 mph 38 % 0.00 in
16:53 96.4 °F 65.1 °F 29.74 in SSE 1.2 mph 1.2 mph 36 % 0.00 in
16:58 97.1 °F 64.9 °F 29.74 in SE 1.2 mph 1.2 mph 35 % 0.00 in
17:03 97.9 °F 61.2 °F 29.73 in Calm     30 % 0.00 in
17:08 98.6 °F 58.8 °F 29.73 in SE 1.2 mph 1.2 mph 27 % 0.00 in
17:13 99.4 °F 60.5 °F 29.73 in SSE 2.3 mph 2.3 mph 28 % 0.00 in
17:18 99.8 °F 61.9 °F 29.73 in SE 1.2 mph 1.2 mph 29 % 0.00 in
17:23 99.7 °F 58.7 °F 29.73 in SW 1.2 mph 1.2 mph 26 % 0.00 in
17:28 99.3 °F 57.3 °F 29.73 in Calm     25 % 0.00 in
17:33 99.1 °F 60.3 °F 29.73 in SSW 1.2 mph   28 % 0.00 in
17:38 98.6 °F 58.8 °F 29.73 in Calm     27 % 0.00 in
17:43 98.2 °F 57.4 °F 29.73 in Calm     26 % 0.00 in
17:48 97.6 °F 59.0 °F 29.73 in SW 1.0 mph   28 % 0.00 in
17:53 97.1 °F 59.6 °F 29.73 in Calm     29 % 0.00 in
17:58 97.3 °F 60.7 °F 29.73 in West 1.2 mph   30 % 0.00 in
18:03 97.1 °F 62.3 °F 29.73 in West 1.2 mph 1.2 mph 32 % 0.00 in
18:08 96.8 °F 62.1 °F 29.73 in West 1.2 mph 1.2 mph 32 % 0.00 in
18:13 96.7 °F 62.0 °F 29.74 in West 1.2 mph   32 % 0.00 in
18:18 96.5 °F 60.0 °F 29.73 in Calm     30 % 0.00 in
18:23 96.4 °F 60.8 °F 29.74 in Calm     31 % 0.00 in
18:28 96.3 °F 59.8 °F 29.74 in Calm     30 % 0.00 in
18:33 96.2 °F 64.9 °F 29.74 in Calm     36 % 0.00 in
18:38 95.7 °F 67.5 °F 29.74 in Calm     40 % 0.00 in
18:43 95.1 °F 67.0 °F 29.74 in SSW 1.2 mph   40 % 0.00 in
18:48 94.6 °F 67.3 °F 29.74 in Calm     41 % 0.00 in
18:53 94.2 °F 64.7 °F 29.74 in Calm     38 % 0.00 in
18:59 94.0 °F 65.3 °F 29.74 in Calm     39 % 0.00 in
19:04 94.0 °F 66.0 °F 29.74 in Calm     40 % 0.00 in
19:09 93.9 °F 68.0 °F 29.74 in Calm     43 % 0.00 in
19:14 93.4 °F 70.2 °F 29.73 in Calm     47 % 0.00 in
19:19 92.7 °F 69.5 °F 29.73 in Calm     47 % 0.00 in
19:24 92.1 °F 69.6 °F 29.73 in Calm     48 % 0.00 in
19:29 91.8 °F 68.7 °F 29.73 in Calm     47 % 0.00 in
19:34 91.3 °F 67.0 °F 29.73 in Calm     45 % 0.00 in
19:39 91.0 °F 68.6 °F 29.73 in Calm     48 % 0.00 in
19:44 90.5 °F 68.7 °F 29.73 in Calm     49 % 0.00 in
19:49 90.1 °F 69.5 °F 29.73 in Calm     51 % 0.00 in
19:54 89.7 °F 69.2 °F 29.73 in Calm     51 % 0.00 in
19:59 89.4 °F 68.3 °F 29.73 in Calm     50 % 0.00 in
20:04 89.0 °F 68.5 °F 29.74 in Calm     51 % 0.00 in
20:09 88.7 °F 68.8 °F 29.73 in Calm     52 % 0.00 in
20:14 88.4 °F 69.1 °F 29.73 in Calm     53 % 0.00 in
20:20 88.0 °F 67.0 °F 29.73 in Calm     50 % 0.00 in
20:25 87.6 °F 70.0 °F 29.74 in Calm     56 % 0.00 in
20:30 87.0 °F 67.8 °F 29.74 in Calm     53 % 0.00 in
20:35 86.8 °F 69.7 °F 29.75 in Calm     57 % 0.00 in
20:40 86.3 °F 69.8 °F 29.75 in Calm     58 % 0.00 in
20:45 86.1 °F 68.6 °F 29.75 in Calm     56 % 0.00 in
20:50 85.9 °F 67.9 °F 29.75 in Calm     55 % 0.00 in
20:55 86.0 °F 68.5 °F 29.75 in Calm     56 % 0.00 in
21:00 86.0 °F 68.0 °F 29.75 in Calm     55 % 0.00 in
21:05 85.8 °F 68.8 °F 29.75 in Calm     57 % 0.00 in
21:10 85.5 °F 69.5 °F 29.76 in Calm     59 % 0.00 in
21:15 85.2 °F 69.7 °F 29.77 in Calm     60 % 0.00 in
21:20 84.5 °F 69.1 °F 29.77 in Calm     60 % 0.00 in
21:25 83.9 °F 69.0 °F 29.77 in SSW 1.2 mph 1.2 mph 61 % 0.00 in
21:30 83.3 °F 68.9 °F 29.77 in Calm     62 % 0.00 in
21:31 83.1 °F 68.7 °F 29.77 in Calm     62 % 0.00 in
21:36 82.9 °F 68.5 °F 29.77 in Calm     62 % 0.00 in
21:41 82.8 °F 68.9 °F 29.78 in Calm     63 % 0.00 in
21:46 82.7 °F 68.4 °F 29.78 in Calm     62 % 0.00 in
21:51 82.9 °F 66.1 °F 29.78 in SE 1.2 mph   57 % 0.00 in
21:56 83.1 °F 67.3 °F 29.79 in Calm     59 % 0.00 in
22:02 82.8 °F 67.0 °F 29.79 in SE 1.2 mph 1.2 mph 59 % 0.00 in
22:07 82.5 °F 65.7 °F 29.80 in SE 2.3 mph 2.3 mph 57 % 0.00 in
22:12 82.4 °F 65.1 °F 29.80 in SE 1.2 mph 1.2 mph 56 % 0.00 in
22:17 82.3 °F 64.5 °F 29.80 in ENE 2.3 mph 2.3 mph 55 % 0.00 in
22:22 82.4 °F 64.6 °F 29.80 in SE 1.2 mph   55 % 0.00 in
22:27 82.6 °F 64.3 °F 29.80 in ESE 1.2 mph 1.2 mph 54 % 0.00 in
22:32 82.9 °F 64.0 °F 29.80 in SE 3.5 mph 3.5 mph 53 % 0.00 in
22:37 82.9 °F 63.5 °F 29.80 in South 2.3 mph 2.3 mph 52 % 0.00 in
22:42 82.7 °F 63.3 °F 29.80 in SE 1.2 mph   52 % 0.00 in
22:47 82.5 °F 62.5 °F 29.80 in Calm     51 % 0.00 in
22:52 82.4 °F 62.5 °F 29.80 in Calm     51 % 0.00 in
22:58 82.2 °F 62.3 °F 29.80 in Calm     51 % 0.00 in
23:03 81.8 °F 61.3 °F 29.80 in Calm     50 % 0.00 in
23:08 81.6 °F 61.7 °F 29.79 in Calm     51 % 0.00 in
23:13 81.5 °F 62.2 °F 29.79 in Calm     52 % 0.00 in
23:18 81.6 °F 62.8 °F 29.79 in Calm     53 % 0.00 in
23:23 81.5 °F 61.6 °F 29.79 in Calm     51 % 0.00 in
23:28 81.6 °F 61.2 °F 29.79 in Calm     50 % 0.00 in
23:33 81.7 °F 61.2 °F 29.78 in Calm     50 % 0.00 in
23:39 82.3 °F 62.4 °F 29.78 in SE 1.2 mph   51 % 0.00 in
23:44 82.4 °F 61.9 °F 29.78 in Calm     50 % 0.00 in
23:49 82.6 °F 60.3 °F 29.78 in Calm     47 % 0.00 in
23:54 83.0 °F 59.5 °F 29.78 in Calm     45 % 0.00 in
23:59 83.8 °F 59.6 °F 29.78 in North 1.2 mph   44 % 0.00 in
Park Place, Exeter, Tulare County, California, USA
Compliments of Weather Underground - 2.75 mb